Tracking 31027 objects as of 19-Jul-2025
HD Live streaming from Space Station
objects crossing your sky now

COSMOS 2251 DEB

Track COSMOS 2251 DEB now!
10-day predictions


NORAD ID: 35674
Int'l Code: 1993-036APR
Perigee: 653.1 km
Apogee: 799.0 km
Inclination: 74.1 °
Period: 99.2 minutes
Semi major axis: 7097 km
RCS: 0.0076 m2 (small)
Launch date: June 16, 1993
Source: Commonwealth of Independent States (former USSR) (CIS)
Launch site: PLESETSK MISSILE AND SPACE COMPLEX (PKMTR)

Note: This is SATELLITE DEBRIS
Your satellite tracking list
PRISMA
Track 1 satellite(s)




NASA's NSSDC Master Catalog

Two Line Element Set (TLE):
1 35674U 93036APR 25199.82549106  .00003008  00000-0  70071-3 0  9996
2 35674  74.0590 233.3655 0102783 317.5362  41.7879 14.52078429840704
Source of the keplerian elements: AFSPC